#timestamp,LO_Frequency,Hit,StdDev 
1524996015.7,286047000.6,N
1524996035.6,286046999.7,N
1524996055.4,286047000.9,N
1524996075.2,286047002.4,N
1524996095.1,286047002.6,N
1524996096.0,286047002.6,N
1524996115.8,286047002.2,N
1524996135.7,286047003.8,Y
1524996155.5,286047002.0,P
1524996175.3,286047000.2,N
1524996195.2,286046999.8,N
1524996215.0,286047002.6,Y
1524996215.9,286047002.6,P
1524996235.7,286047005.6,P
1524996255.6,286047003.4,N
1524996275.4,286047002.3,N
1524996295.3,286047002.6,N
1524996315.1,286047001.3,N
1524996316.0,286047001.3,N
1524996335.8,286047004.2,N
1524996355.7,286047003.5,N
1524996375.5,286047004.4,Y
1524996395.4,286046998.8,P
1524996415.2,286046996.8,N
1524996435.0,286046996.5,N
1524996435.9,286046996.5,N
1524996455.8,286046996.9,N
1524996475.6,286046999.2,N
1524996495.4,286046999.1,N
1524996515.3,286046996.7,N
1524996535.1,286046996.8,N
1524996555.9,286046997.3,N
1524996575.7,286046997.3,N
1524996595.5,286046997.7,N
1524996615.4,286046997.8,N
1524996635.2,286046997.6,N
1524996655.0,286046997.0,N
1524996655.9,286046997.0,N
1524996675.8,286046996.5,N
1524996695.6,286046997.6,N
1524996715.5,286046997.6,N
1524996735.3,286046997.3,N
1524996755.1,286046996.6,N
1524996775.9,286046997.1,N
1524996795.7,286046999.4,N
1524996815.6,286046996.8,N
1524996835.4,286046997.6,N
1524996855.2,286046997.2,N
1524996875.1,286046999.5,N
1524996876.0,286046999.5,N
1524996895.8,286046997.3,N
1524996915.6,286046996.9,N
1524996935.5,286046997.9,N
1524996955.3,286046997.8,N
1524996975.2,286046997.3,Y
1524996995.9,286046998.2,P
1524997045.8,286047000.0,E
1524997055.7,286047000.9,N
1524997075.5,286047002.8,P
1524997095.4,286047000.0,N
1524997115.2,286047000.4,N
1524997135.0,286047000.2,N
1524997135.9,286047000.2,N
1524997155.8,286047001.1,N
1524997175.6,286046998.5,N
1524997195.5,286046997.1,N
1524997215.3,286046998.1,N
1524997235.1,286046996.9,N
1524997255.9,286046999.3,N
1524997275.7,286046999.6,N
1524997295.5,286047001.2,N
1524997315.4,286047001.2,N
1524997335.2,286047000.1,N
1524997355.1,286047001.0,N
1524997356.0,286047001.0,N
1524997375.8,286047000.2,N
1524997395.6,286046999.9,N
1524997415.5,286047002.6,N
1524997435.3,286047000.3,N
1524997455.1,286047001.3,N
1524997475.9,286047002.4,N
1524997495.7,286047000.9,N
1524997515.6,286047000.1,N
1524997535.4,286047000.1,N
1524997555.2,286047000.1,N
1524997575.1,286047001.0,N
1524997576.0,286047001.0,N
1524997595.8,286047001.2,N
1524997615.6,286047000.6,N
1524997635.5,286046998.1,N
1524997655.3,286046999.6,N
1524997675.2,286047000.9,N
1524997695.9,286046998.6,N
1524997715.7,286046999.4,N
1524997735.6,286046998.9,N
1524997755.4,286046998.5,N
1524997775.2,286047000.9,N
1524997795.1,286047001.0,N
1524997796.0,286047001.0,N
1524997815.8,286047000.4,N
1524997835.7,286047000.4,N
1524997855.5,286047000.0,N
1524997875.3,286047000.7,N
1524997895.2,286046998.5,N
1524997915.0,286046998.5,N
1524997915.9,286046998.5,N
1524997935.7,286046999.3,N
1524997955.6,286046998.8,N
1524997975.4,286046998.2,N
1524997995.3,286047000.2,N
1524998015.1,286047000.2,N
1524998016.0,286047000.2,N
1524998035.8,286047000.0,N
1524998055.7,286047002.4,N
1524998075.5,286047000.1,N
1524998095.3,286047000.9,N
1524998115.2,286047001.0,N
1524998135.0,286047000.6,N
1524998135.9,286047000.6,N
1524998155.8,286047001.1,N
1524998175.6,286047000.3,N
1524998195.4,286046998.1,N
1524998215.3,286047000.4,N
1524998235.1,286046999.9,N
1524998255.9,286047000.1,N
1524998275.7,286047000.2,N
1524998295.5,286047002.1,N
1524998315.4,286047002.3,N
1524998335.2,286047001.4,N
1524998355.0,286047001.7,N
1524998355.9,286047001.7,N
1524998375.8,286047006.0,Y
1524998395.6,286047003.8,P
1524998415.5,286047004.1,N
1524998435.3,286047003.5,N
1524998455.1,286047003.8,N
1524998475.9,286047004.3,N
1524998495.7,286047001.5,N
1524998515.5,286047001.9,N
1524998535.4,286047003.8,N
1524998555.2,286047004.1,Y
1524998575.1,286047002.4,P
1524998576.0,286047002.4,P
1524998595.8,286047000.0,N
1524998615.6,286046999.9,N
1524998635.5,286047000.1,N
1524998655.3,286047001.9,N
1524998675.2,286047001.5,N
1524998695.9,286047002.6,N
1524998715.7,286047001.7,N
1524998735.6,286047000.1,N
1524998755.4,286047000.3,N
1524998775.3,286046998.2,N
1524998795.1,286046998.2,N
1524998796.0,286046998.2,N
1524998815.8,286046998.2,N
1524998835.7,286046998.9,N
1524998855.5,286047001.2,N
1524998875.3,286046998.3,N
1524998895.2,286046998.7,N
1524998915.0,286046998.9,N
1524998915.9,286046998.9,N
1524998935.8,286046998.6,N
1524998955.6,286046998.2,N
1524998975.4,286046999.0,N
1524998995.3,286046999.1,N
1524999015.1,286046998.9,N
1524999035.8,286046998.6,N
1524999055.7,286046999.6,N
1524999075.5,286046996.8,N
1524999095.4,286046997.1,N
1524999115.2,286046997.0,N
1524999135.0,286046997.7,N
1524999135.9,286046997.7,N
1524999155.8,286046997.2,N
1524999175.6,286046996.7,N
1524999195.4,286046997.0,N
1524999215.3,286046997.3,N
1524999235.1,286046997.8,N
1524999255.9,286046997.2,N
1524999275.7,286046997.1,N
1524999295.5,286046997.8,N
1524999315.4,286046995.0,Y
1524999335.2,286046997.1,P
1524999355.0,286046997.6,P
1524999356.0,286046997.6,P
1524999375.8,286046997.9,Y
1524999395.6,286046998.9,P
1524999415.5,286046998.9,N
1524999435.3,286046998.9,N
1524999455.1,286046998.8,N
1524999475.9,286046998.6,N
1524999495.7,286046999.1,N
1524999515.6,286046999.5,N
1524999535.4,286046996.5,Y
1524999555.2,286047000.0,P
1524999575.1,286046998.2,P
1524999576.0,286046998.2,N
1524999595.8,286047000.4,N
